Location: Austin
(30.3000°N, 97.7500°W)
Time: 06:37:18
(UTC-05:00)

Cosmos 2221 - Pass Details

Date: 19 September 2023
Orbit: 587 x 608 km, 82.5° (Epoch: 25 September)

Event Time Altitude Azimuth Distance (km) Brightness Sun altitude
Exits shadow 05:56:28 12° 193° (SSW) 1,750 4.6 -18.2°
Maximum altitude 06:00:16 71° 276° (W) 626 2.3 -17.4°
Drops below altitude 10° 06:04:31 10° 1° (N) 1,929 5.2 -16.5°
Sets 06:06:45 0° 4° (N) 2,838 6.2 -16.0°
